Location: Evansville
(37.9747°N, 87.5558°W)
Time: 20:30:42
(UTC-06:00)

ARIANE 6 FM1 Upper Stage - Pass Details

Date: 16 December 2025
Orbit: 522 x 610 km, 62.0° (Epoch: 13 January)

Event Time Altitude Azimuth Distance (km) Brightness Sun altitude
Exits shadow 05:17:33 - 209° (SSW) 2,496 5.8 -19.5°
Reaches altitude 10° 05:19:16 10° 207° (SSW) 1,803 5.1 -19.1°
Maximum altitude 05:23:17 74° 123° (ESE) 560 2.7 -18.4°
Drops below altitude 10° 05:27:16 10° 38° (NE) 1,776 5.5 -17.6°
Sets 05:29:27 0° 37° (NE) 2,661 6.4 -17.2°
